Wrangell, AK

6:14 PM AKDT on September 25, 2017 (GMT -0800)
Wrangell

Weather History for PAWG - May, 2013

Change the Weather History Date:

Sunday, May 19, 2013

  Actual Average Record
Temperature  
Mean Temperature 38 °F -  
Max Temperature 44 °F 55 °F 77 °F (1956)
Min Temperature 33 °F 40 °F 32 °F (1964)
Degree Days  
Heating Degree Days 26    
Moisture  
Dew Point 33 °F    
Average Humidity 76    
Maximum Humidity 87    
Minimum Humidity 53    
Precipitation  
Precipitation 0.14 in - - ()
Sea Level Pressure  
Sea Level Pressure 30.49 in    
Wind  
Wind Speed 7 mph (SE)    
Max Wind Speed 13 mph    
Max Gust Speed 17 mph    
Visibility 10 miles    
Events      
Averages and records for this station are not official NWS values.
T = Trace of Precipitation, MM = Missing Value Source: NWS Daily Summary

Daily Weather History Graph

Daily Weather History Graph

Search for Another Location

Airport or City:

Trip Planner

Search our weather history database for the weather conditions in past years. The results will help you decide how hot, cold, wet, or windy it might be!

Date:

Astronomy

May. 19, 2013 Rise Set
Actual Time 4:25 AM AKDT 9:07 PM AKDT
Civil Twilight 3:32 AM AKDT 10:00 PM AKDT
Nautical Twilight 2:02 AM AKDT 11:34 PM AKDT
Astronomical Twilight Sun does not set Sun does not set
Moon 2:13 PM AKDT (5/19) 2:03 AM AKDT (5/19)
Length of Visible Light 18h 28m
Length of Day
16h 41m
Waxing Gibbous, 66% of the Moon is Illuminated
May 19
Waxing Gibbous
May 24
Full
May 31
Last Quarter
Jun 8
New
Jun 16
First Quarter

Hourly Weather History & Observations

Time (AKDT) Temp. Windchill Dew Point Humidity Pressure Visibility Wind Dir Wind Speed Gust Speed Precip Events Conditions
12:16 AM 41.0 °F 34.3 °F 32.0 °F 70% 30.37 in 10.0 mi SSW 11.5 mph 16.1 mph N/A   Overcast
12:36 AM 39.2 °F 34.2 °F 33.8 °F 81% 30.37 in 7.0 mi SSE 6.9 mph - N/A   Overcast
12:56 AM 39.2 °F 37.0 °F 33.8 °F 81% 30.37 in 10.0 mi ESE 3.5 mph - N/A   Overcast
1:16 AM 39.2 °F 34.2 °F 33.8 °F 81% 30.38 in 10.0 mi East 6.9 mph - N/A   Overcast
1:36 AM 39.2 °F 35.9 °F 33.8 °F 81% 30.39 in 10.0 mi ESE 4.6 mph - N/A   Overcast
1:56 AM 39.2 °F 33.6 °F 33.8 °F 81% 30.39 in 10.0 mi ESE 8.1 mph - N/A   Overcast
2:16 AM 39.2 °F 34.2 °F 33.8 °F 81% 30.40 in 10.0 mi ESE 6.9 mph - N/A   Overcast
2:36 AM 39.2 °F 35.0 °F 33.8 °F 81% 30.40 in 10.0 mi SE 5.8 mph - N/A   Overcast
2:56 AM 39.2 °F 34.2 °F 33.8 °F 81% 30.41 in 10.0 mi SSE 6.9 mph - N/A   Overcast
3:16 AM 39.2 °F 34.2 °F 33.8 °F 81% 30.42 in 10.0 mi SSE 6.9 mph - N/A   Overcast
3:36 AM 39.2 °F - 33.8 °F 81% 30.43 in 10.0 mi Calm Calm - N/A   Overcast
3:56 AM 39.2 °F 35.0 °F 32.0 °F 75% 30.43 in 8.0 mi SE 5.8 mph - N/A   Overcast
4:16 AM 37.4 °F 30.8 °F 33.8 °F 87% 30.43 in 10.0 mi East 9.2 mph - 0.01 in   Overcast
4:36 AM 39.2 °F 35.0 °F 33.8 °F 81% 30.43 in 10.0 mi ENE 5.8 mph - 0.01 in   Mostly Cloudy
4:56 AM 39.2 °F 34.2 °F 33.8 °F 81% 30.44 in 10.0 mi ESE 6.9 mph - 0.01 in   Mostly Cloudy
5:16 AM 39.2 °F 33.6 °F 33.8 °F 81% 30.44 in 10.0 mi SE 8.1 mph - N/A   Overcast
5:36 AM 39.2 °F 34.2 °F 33.8 °F 81% 30.45 in 10.0 mi SE 6.9 mph - N/A   Overcast
5:56 AM 39.2 °F 32.5 °F 33.8 °F 81% 30.45 in 10.0 mi SE 10.4 mph - N/A   Overcast
6:16 AM 37.4 °F 34.9 °F 33.8 °F 87% 30.45 in 10.0 mi South 3.5 mph - N/A   Overcast
6:36 AM 39.2 °F 35.9 °F 32.0 °F 75% 30.46 in 10.0 mi SSE 4.6 mph - N/A   Overcast
6:56 AM 37.4 °F 32.1 °F 30.2 °F 75% 30.48 in 10.0 mi West 6.9 mph 16.1 mph 0.03 in   Overcast
7:16 AM 33.8 °F 27.0 °F 28.4 °F 81% 30.48 in 10.0 mi South 8.1 mph - 0.07 in   Overcast
7:36 AM 35.6 °F - 32.0 °F 87% 30.48 in 10.0 mi Calm Calm - 0.09 in   Overcast
7:56 AM 37.4 °F 32.8 °F 32.0 °F 81% 30.48 in 10.0 mi East 5.8 mph - 0.09 in   Overcast
8:16 AM 37.4 °F 31.4 °F 32.0 °F 81% 30.48 in 10.0 mi East 8.1 mph - N/A   Overcast
8:36 AM 39.2 °F 33.0 °F 33.8 °F 81% 30.49 in 10.0 mi East 9.2 mph - N/A   Overcast
8:56 AM 39.2 °F 32.0 °F 33.8 °F 81% 30.50 in 10.0 mi East 11.5 mph - N/A   Overcast
9:16 AM 39.2 °F 32.0 °F 33.8 °F 81% 30.50 in 10.0 mi ESE 11.5 mph 17.3 mph N/A   Overcast
9:36 AM 39.2 °F 31.6 °F 33.8 °F 81% 30.50 in 10.0 mi ESE 12.7 mph 17.3 mph N/A   Overcast
9:56 AM 39.2 °F 32.0 °F 33.8 °F 81% 30.50 in 10.0 mi ESE 11.5 mph - N/A   Mostly Cloudy
10:16 AM 41.0 °F 33.9 °F 33.8 °F 76% 30.50 in 10.0 mi ESE 12.7 mph - N/A   Mostly Cloudy
10:36 AM 42.8 °F 38.0 °F 35.6 °F 76% 30.51 in 10.0 mi SE 8.1 mph - N/A   Mostly Cloudy
10:56 AM 39.2 °F 32.0 °F 32.0 °F 75% 30.52 in 10.0 mi WNW 11.5 mph - N/A   Overcast
11:16 AM 39.2 °F 32.0 °F 33.8 °F 81% 30.53 in 10.0 mi West 11.5 mph - N/A   Overcast
11:36 AM 39.2 °F 35.9 °F 33.8 °F 81% 30.53 in 10.0 mi WSW 4.6 mph - N/A   Overcast
11:56 AM 39.2 °F 37.0 °F 32.0 °F 75% 30.53 in 10.0 mi South 3.5 mph - 0.01 in   Overcast
12:16 PM 41.0 °F 37.1 °F 33.8 °F 76% 30.53 in 10.0 mi East 5.8 mph - N/A   Overcast
12:36 PM 42.8 °F 39.3 °F 35.6 °F 76% 30.53 in 10.0 mi East 5.8 mph - N/A   Overcast
12:56 PM 42.8 °F 38.6 °F 33.8 °F 70% 30.52 in 10.0 mi ESE 6.9 mph - N/A   Mostly Cloudy
1:16 PM 42.8 °F 38.6 °F 33.8 °F 70% 30.53 in 10.0 mi ESE 6.9 mph - N/A   Mostly Cloudy
1:36 PM 42.8 °F 39.3 °F 32.0 °F 66% 30.53 in 10.0 mi ESE 5.8 mph - N/A   Mostly Cloudy
1:56 PM 44.6 °F 42.2 °F 30.2 °F 57% 30.53 in 10.0 mi SE 4.6 mph - N/A   Mostly Cloudy
2:16 PM 44.6 °F 42.2 °F 32.0 °F 61% 30.53 in 10.0 mi ESE 4.6 mph - N/A   Mostly Cloudy
2:36 PM 44.6 °F 43.1 °F 32.0 °F 61% 30.53 in 10.0 mi ESE 3.5 mph - N/A   Mostly Cloudy
2:56 PM 44.6 °F - 28.4 °F 53% 30.53 in 10.0 mi Calm Calm - N/A   Overcast
3:16 PM 44.6 °F 38.8 °F 33.8 °F 66% 30.53 in 10.0 mi WNW 11.5 mph - N/A   Overcast
3:36 PM 42.8 °F 36.2 °F 33.8 °F 70% 30.54 in 10.0 mi West 12.7 mph - N/A   Overcast
3:56 PM 42.8 °F 36.2 °F 32.0 °F 66% 30.54 in 10.0 mi West 12.7 mph 17.3 mph N/A   Overcast
4:16 PM 42.8 °F 38.0 °F 32.0 °F 66% 30.54 in 10.0 mi West 8.1 mph - N/A   Overcast
4:36 PM 42.8 °F 40.1 °F 32.0 °F 66% 30.54 in 10.0 mi SSW 4.6 mph - N/A   Overcast
4:56 PM 42.8 °F 37.5 °F 33.8 °F 70% 30.54 in 10.0 mi SSW 9.2 mph - N/A   Overcast
5:16 PM 42.8 °F 41.1 °F 32.0 °F 66% 30.53 in 10.0 mi SSE 3.5 mph - N/A   Overcast
5:36 PM 44.6 °F 41.4 °F 35.6 °F 71% 30.53 in 10.0 mi East 5.8 mph - N/A   Overcast
5:56 PM 42.8 °F 39.3 °F 33.8 °F 70% 30.53 in 10.0 mi East 5.8 mph - N/A   Overcast
6:16 PM 42.8 °F 38.6 °F 33.8 °F 70% 30.52 in 10.0 mi East 6.9 mph - N/A   Overcast
6:36 PM 42.8 °F 38.6 °F 33.8 °F 70% 30.52 in 10.0 mi ESE 6.9 mph - N/A   Overcast
6:56 PM 42.8 °F 38.0 °F 33.8 °F 70% 30.52 in 10.0 mi ESE 8.1 mph - N/A   Overcast
7:16 PM 42.8 °F 37.5 °F 33.8 °F 70% 30.52 in 10.0 mi ESE 9.2 mph - N/A   Overcast
7:36 PM 42.8 °F 38.0 °F 33.8 °F 70% 30.52 in 10.0 mi SE 8.1 mph - N/A   Overcast
7:56 PM 42.8 °F 38.6 °F 33.8 °F 70% 30.52 in 10.0 mi East 6.9 mph - N/A   Overcast
8:16 PM 42.8 °F 36.2 °F 33.8 °F 70% 30.52 in 10.0 mi WNW 12.7 mph - N/A   Overcast
8:36 PM 39.2 °F 33.0 °F 30.2 °F 70% 30.52 in 10.0 mi WNW 9.2 mph - N/A   Overcast
8:56 PM 39.2 °F 34.2 °F 30.2 °F 70% 30.52 in 10.0 mi West 6.9 mph - N/A   Overcast
9:16 PM 39.2 °F 37.0 °F 30.2 °F 70% 30.52 in 10.0 mi SE 3.5 mph - N/A   Overcast
9:36 PM 39.2 °F 33.6 °F 33.8 °F 81% 30.52 in 10.0 mi SSE 8.1 mph - N/A   Overcast
9:56 PM 39.2 °F 35.0 °F 33.8 °F 81% 30.52 in 10.0 mi SSE 5.8 mph - N/A   Overcast
10:16 PM 37.4 °F 33.8 °F 33.8 °F 87% 30.52 in 10.0 mi SE 4.6 mph - N/A   Overcast
10:36 PM 39.2 °F 35.0 °F 33.8 °F 81% 30.51 in 10.0 mi SE 5.8 mph - N/A   Overcast
10:56 PM 39.2 °F 35.9 °F 33.8 °F 81% 30.51 in 10.0 mi ESE 4.6 mph - N/A   Overcast
11:16 PM 39.2 °F 33.6 °F 33.8 °F 81% 30.51 in 10.0 mi ESE 8.1 mph - N/A   Overcast
11:36 PM 39.2 °F 35.9 °F 33.8 °F 81% 30.52 in 10.0 mi SE 4.6 mph - N/A   Overcast
11:56 PM 39.2 °F 35.9 °F 33.8 °F 81% 30.52 in 10.0 mi SE 4.6 mph - N/A   Overcast